owner,sensor,date,latitude,longitude,sea_surface_height_above_sea_level,qcFlag 
COMPS,ioos:station:USF.COMPS:FHP:1,2016-03-01T00:00:00Z,28.1530,-82.8010,-0.058,1111122 
COMPS,ioos:station:USF.COMPS:FHP:1,2016-03-01T00:12:00Z,28.1530,-82.8010,-0.087,1111122 
COMPS,ioos:station:USF.COMPS:FHP:1,2016-03-01T00:18:00Z,28.1530,-82.8010,-0.096,1111122 
COMPS,ioos:station:USF.COMPS:FHP:1,2016-03-01T00:24:00Z,28.1530,-82.8010,-0.11,1111122 
COMPS,ioos:station:USF.COMPS:FHP:1,2016-03-01T00:30:00Z,28.1530,-82.8010,-0.112,1111122 
COMPS,ioos:station:USF.COMPS:FHP:1,2016-03-01T00:36:00Z,28.1530,-82.8010,-0.131,1111122 
COMPS,ioos:station:USF.COMPS:FHP:1,2016-03-01T00:42:00Z,28.1530,-82.8010,-0.147,1111122 
COMPS,ioos:station:USF.COMPS:FHP:1,2016-03-01T00:48:00Z,28.1530,-82.8010,-0.165,1111122 
COMPS,ioos:station:USF.COMPS:FHP:1,2016-03-01T00:54:00Z,28.1530,-82.8010,-0.168,1111122 
COMPS,ioos:station:USF.COMPS:FHP:1,2016-03-01T01:00:00Z,28.1530,-82.8010,-0.173,1111122 
COMPS,ioos:station:USF.COMPS:FHP:1,2016-03-01T01:06:00Z,28.1530,-82.8010,-0.188,1111122 
COMPS,ioos:station:USF.COMPS:FHP:1,2016-03-01T01:12:00Z,28.1530,-82.8010,-0.201,1111122 
COMPS,ioos:station:USF.COMPS:FHP:1,2016-03-01T01:18:00Z,28.1530,-82.8010,-0.208,1111122 
COMPS,ioos:station:USF.COMPS:FHP:1,2016-03-01T01:24:00Z,28.1530,-82.8010,-0.224,1111122 
COMPS,ioos:station:USF.COMPS:FHP:1,2016-03-01T01:30:00Z,28.1530,-82.8010,-0.237,1111122 
COMPS,ioos:station:USF.COMPS:FHP:1,2016-03-01T01:36:00Z,28.1530,-82.8010,-0.248,1111122 
COMPS,ioos:station:USF.COMPS:FHP:1,2016-03-01T01:42:00Z,28.1530,-82.8010,-0.261,1111122 
COMPS,ioos:station:USF.COMPS:FHP:1,2016-03-01T01:48:00Z,28.1530,-82.8010,-0.279,1111122 
COMPS,ioos:station:USF.COMPS:FHP:1,2016-03-01T01:54:00Z,28.1530,-82.8010,-0.289,1111122 
COMPS,ioos:station:USF.COMPS:FHP:1,2016-03-01T02:00:00Z,28.1530,-82.8010,-0.298,1111122 
COMPS,ioos:station:USF.COMPS:FHP:1,2016-03-01T02:06:00Z,28.1530,-82.8010,-0.303,1111122 
COMPS,ioos:station:USF.COMPS:FHP:1,2016-03-01T02:12:00Z,28.1530,-82.8010,-0.315,1111122 
COMPS,ioos:station:USF.COMPS:FHP:1,2016-03-01T02:24:00Z,28.1530,-82.8010,-0.329,1111122 
COMPS,ioos:station:USF.COMPS:FHP:1,2016-03-01T02:30:00Z,28.1530,-82.8010,-0.346,1111122 
COMPS,ioos:station:USF.COMPS:FHP:1,2016-03-01T02:36:00Z,28.1530,-82.8010,-0.353,1111122 
COMPS,ioos:station:USF.COMPS:FHP:1,2016-03-01T02:48:00Z,28.1530,-82.8010,-0.367,1111122 
COMPS,ioos:station:USF.COMPS:FHP:1,2016-03-01T03:00:00Z,28.1530,-82.8010,-0.38,1111122 
COMPS,ioos:station:USF.COMPS:FHP:1,2016-03-01T03:06:00Z,28.1530,-82.8010,-0.379,1111122 
COMPS,ioos:station:USF.COMPS:FHP:1,2016-03-01T03:18:00Z,28.1530,-82.8010,-0.384,1111122 
COMPS,ioos:station:USF.COMPS:FHP:1,2016-03-01T03:30:00Z,28.1530,-82.8010,-0.397,1111122 
COMPS,ioos:station:USF.COMPS:FHP:1,2016-03-01T03:36:00Z,28.1530,-82.8010,-0.402,1111122 
COMPS,ioos:station:USF.COMPS:FHP:1,2016-03-01T03:48:00Z,28.1530,-82.8010,-0.398,1111122 
COMPS,ioos:station:USF.COMPS:FHP:1,2016-03-01T03:54:00Z,28.1530,-82.8010,-0.391,1111122 
COMPS,ioos:station:USF.COMPS:FHP:1,2016-03-01T04:00:00Z,28.1530,-82.8010,-0.396,1111122 
COMPS,ioos:station:USF.COMPS:FHP:1,2016-03-01T04:18:00Z,28.1530,-82.8010,-0.391,1111122 
COMPS,ioos:station:USF.COMPS:FHP:1,2016-03-01T04:24:00Z,28.1530,-82.8010,-0.384,1111122 
COMPS,ioos:station:USF.COMPS:FHP:1,2016-03-01T04:42:00Z,28.1530,-82.8010,-0.37,1111122 
COMPS,ioos:station:USF.COMPS:FHP:1,2016-03-01T04:48:00Z,28.1530,-82.8010,-0.364,1111122 
COMPS,ioos:station:USF.COMPS:FHP:1,2016-03-01T05:00:00Z,28.1530,-82.8010,-0.351,1111122 
COMPS,ioos:station:USF.COMPS:FHP:1,2016-03-01T05:12:00Z,28.1530,-82.8010,-0.339,1111122 
COMPS,ioos:station:USF.COMPS:FHP:1,2016-03-01T05:24:00Z,28.1530,-82.8010,-0.327,1111122 
COMPS,ioos:station:USF.COMPS:FHP:1,2016-03-01T05:30:00Z,28.1530,-82.8010,-0.317,1111122 
COMPS,ioos:station:USF.COMPS:FHP:1,2016-03-01T05:36:00Z,28.1530,-82.8010,-0.309,1111122 
COMPS,ioos:station:USF.COMPS:FHP:1,2016-03-01T05:42:00Z,28.1530,-82.8010,-0.301,1111122 
COMPS,ioos:station:USF.COMPS:FHP:1,2016-03-01T05:48:00Z,28.1530,-82.8010,-0.289,1111122 
COMPS,ioos:station:USF.COMPS:FHP:1,2016-03-01T05:54:00Z,28.1530,-82.8010,-0.279,1111122 
COMPS,ioos:station:USF.COMPS:FHP:1,2016-03-01T06:00:00Z,28.1530,-82.8010,-0.269,1111122 
COMPS,ioos:station:USF.COMPS:FHP:1,2016-03-01T06:06:00Z,28.1530,-82.8010,-0.263,1111122 
COMPS,ioos:station:USF.COMPS:FHP:1,2016-03-01T06:18:00Z,28.1530,-82.8010,-0.241,1111122 
COMPS,ioos:station:USF.COMPS:FHP:1,2016-03-01T06:24:00Z,28.1530,-82.8010,-0.231,1111122 
COMPS,ioos:station:USF.COMPS:FHP:1,2016-03-01T06:30:00Z,28.1530,-82.8010,-0.22,1111122 
COMPS,ioos:station:USF.COMPS:FHP:1,2016-03-01T06:54:00Z,28.1530,-82.8010,-0.183,1111122 
COMPS,ioos:station:USF.COMPS:FHP:1,2016-03-01T07:00:00Z,28.1530,-82.8010,-0.175,1111122 
COMPS,ioos:station:USF.COMPS:FHP:1,2016-03-01T07:06:00Z,28.1530,-82.8010,-0.166,1111122 
COMPS,ioos:station:USF.COMPS:FHP:1,2016-03-01T07:12:00Z,28.1530,-82.8010,-0.153,1111122 
COMPS,ioos:station:USF.COMPS:FHP:1,2016-03-01T07:30:00Z,28.1530,-82.8010,-0.131,1111122 
COMPS,ioos:station:USF.COMPS:FHP:1,2016-03-01T07:42:00Z,28.1530,-82.8010,-0.115,1111122 
COMPS,ioos:station:USF.COMPS:FHP:1,2016-03-01T07:48:00Z,28.1530,-82.8010,-0.105,1111122 
COMPS,ioos:station:USF.COMPS:FHP:1,2016-03-01T07:54:00Z,28.1530,-82.8010,-0.102,1111122 
COMPS,ioos:station:USF.COMPS:FHP:1,2016-03-01T08:00:00Z,28.1530,-82.8010,-0.093,1111122 
COMPS,ioos:station:USF.COMPS:FHP:1,2016-03-01T08:06:00Z,28.1530,-82.8010,-0.091,1111122 
COMPS,ioos:station:USF.COMPS:FHP:1,2016-03-01T08:12:00Z,28.1530,-82.8010,-0.081,1111122 
COMPS,ioos:station:USF.COMPS:FHP:1,2016-03-01T08:18:00Z,28.1530,-82.8010,-0.079,1111122 
COMPS,ioos:station:USF.COMPS:FHP:1,2016-03-01T08:24:00Z,28.1530,-82.8010,-0.069,1111122 
COMPS,ioos:station:USF.COMPS:FHP:1,2016-03-01T08:30:00Z,28.1530,-82.8010,-0.069,1111122 
COMPS,ioos:station:USF.COMPS:FHP:1,2016-03-01T08:48:00Z,28.1530,-82.8010,-0.056,1111122 
COMPS,ioos:station:USF.COMPS:FHP:1,2016-03-01T08:54:00Z,28.1530,-82.8010,-0.047,1111122 
COMPS,ioos:station:USF.COMPS:FHP:1,2016-03-01T09:00:00Z,28.1530,-82.8010,-0.044,1111122 
COMPS,ioos:station:USF.COMPS:FHP:1,2016-03-01T09:12:00Z,28.1530,-82.8010,-0.046,1111122 
COMPS,ioos:station:USF.COMPS:FHP:1,2016-03-01T09:18:00Z,28.1530,-82.8010,-0.051,1111122 
COMPS,ioos:station:USF.COMPS:FHP:1,2016-03-01T09:24:00Z,28.1530,-82.8010,-0.051,1111122 
COMPS,ioos:station:USF.COMPS:FHP:1,2016-03-01T09:30:00Z,28.1530,-82.8010,-0.052,1111122 
COMPS,ioos:station:USF.COMPS:FHP:1,2016-03-01T09:36:00Z,28.1530,-82.8010,-0.047,1111122 
COMPS,ioos:station:USF.COMPS:FHP:1,2016-03-01T09:42:00Z,28.1530,-82.8010,-0.044,1111122 
COMPS,ioos:station:USF.COMPS:FHP:1,2016-03-01T09:48:00Z,28.1530,-82.8010,-0.043,1111122 
COMPS,ioos:station:USF.COMPS:FHP:1,2016-03-01T10:00:00Z,28.1530,-82.8010,-0.039,1111122 
COMPS,ioos:station:USF.COMPS:FHP:1,2016-03-01T10:06:00Z,28.1530,-82.8010,-0.041,1111122 
COMPS,ioos:station:USF.COMPS:FHP:1,2016-03-01T10:18:00Z,28.1530,-82.8010,-0.037,1111122 
COMPS,ioos:station:USF.COMPS:FHP:1,2016-03-01T10:24:00Z,28.1530,-82.8010,-0.025,1111122 
COMPS,ioos:station:USF.COMPS:FHP:1,2016-03-01T10:30:00Z,28.1530,-82.8010,-0.023,1111122 
COMPS,ioos:station:USF.COMPS:FHP:1,2016-03-01T10:36:00Z,28.1530,-82.8010,-0.027,1111122 
COMPS,ioos:station:USF.COMPS:FHP:1,2016-03-01T10:42:00Z,28.1530,-82.8010,-0.031,1111122 
COMPS,ioos:station:USF.COMPS:FHP:1,2016-03-01T10:48:00Z,28.1530,-82.8010,-0.036,1111122 
COMPS,ioos:station:USF.COMPS:FHP:1,2016-03-01T10:54:00Z,28.1530,-82.8010,-0.034,1111122 
COMPS,ioos:station:USF.COMPS:FHP:1,2016-03-01T11:00:00Z,28.1530,-82.8010,-0.042,1111122 
COMPS,ioos:station:USF.COMPS:FHP:1,2016-03-01T11:06:00Z,28.1530,-82.8010,-0.045,1111122 
COMPS,ioos:station:USF.COMPS:FHP:1,2016-03-01T11:12:00Z,28.1530,-82.8010,-0.044,1111122 
COMPS,ioos:station:USF.COMPS:FHP:1,2016-03-01T11:24:00Z,28.1530,-82.8010,-0.053,1111122 
COMPS,ioos:station:USF.COMPS:FHP:1,2016-03-01T11:30:00Z,28.1530,-82.8010,-0.06,1111122 
COMPS,ioos:station:USF.COMPS:FHP:1,2016-03-01T11:42:00Z,28.1530,-82.8010,-0.069,1111122 
COMPS,ioos:station:USF.COMPS:FHP:1,2016-03-01T11:48:00Z,28.1530,-82.8010,-0.068,1111122 
COMPS,ioos:station:USF.COMPS:FHP:1,2016-03-01T12:00:00Z,28.1530,-82.8010,-0.075,1111122 
COMPS,ioos:station:USF.COMPS:FHP:1,2016-03-01T12:06:00Z,28.1530,-82.8010,-0.088,1111122 
COMPS,ioos:station:USF.COMPS:FHP:1,2016-03-01T12:12:00Z,28.1530,-82.8010,-0.097,1111122 
COMPS,ioos:station:USF.COMPS:FHP:1,2016-03-01T12:18:00Z,28.1530,-82.8010,-0.099,1111122 
COMPS,ioos:station:USF.COMPS:FHP:1,2016-03-01T12:36:00Z,28.1530,-82.8010,-0.108,1111122 
COMPS,ioos:station:USF.COMPS:FHP:1,2016-03-01T12:42:00Z,28.1530,-82.8010,-0.117,1111122 
COMPS,ioos:station:USF.COMPS:FHP:1,2016-03-01T12:48:00Z,28.1530,-82.8010,-0.129,1111122 
COMPS,ioos:station:USF.COMPS:FHP:1,2016-03-01T12:54:00Z,28.1530,-82.8010,-0.126,1111122 
COMPS,ioos:station:USF.COMPS:FHP:1,2016-03-01T13:00:00Z,28.1530,-82.8010,-0.136,1111122 
COMPS,ioos:station:USF.COMPS:FHP:1,2016-03-01T13:06:00Z,28.1530,-82.8010,-0.136,1111122 
COMPS,ioos:station:USF.COMPS:FHP:1,2016-03-01T13:12:00Z,28.1530,-82.8010,-0.138,1111122 
COMPS,ioos:station:USF.COMPS:FHP:1,2016-03-01T13:18:00Z,28.1530,-82.8010,-0.149,1111122 
COMPS,ioos:station:USF.COMPS:FHP:1,2016-03-01T13:24:00Z,28.1530,-82.8010,-0.153,1111122 
COMPS,ioos:station:USF.COMPS:FHP:1,2016-03-01T13:30:00Z,28.1530,-82.8010,-0.15,1111122 
COMPS,ioos:station:USF.COMPS:FHP:1,2016-03-01T13:36:00Z,28.1530,-82.8010,-0.16,1111122 
COMPS,ioos:station:USF.COMPS:FHP:1,2016-03-01T13:42:00Z,28.1530,-82.8010,-0.161,1111122 
COMPS,ioos:station:USF.COMPS:FHP:1,2016-03-01T13:48:00Z,28.1530,-82.8010,-0.162,1111122 
COMPS,ioos:station:USF.COMPS:FHP:1,2016-03-01T13:54:00Z,28.1530,-82.8010,-0.168,1111122 
COMPS,ioos:station:USF.COMPS:FHP:1,2016-03-01T14:00:00Z,28.1530,-82.8010,-0.157,1111122 
COMPS,ioos:station:USF.COMPS:FHP:1,2016-03-01T14:06:00Z,28.1530,-82.8010,-0.169,1111122 
COMPS,ioos:station:USF.COMPS:FHP:1,2016-03-01T14:12:00Z,28.1530,-82.8010,-0.163,1111122 
COMPS,ioos:station:USF.COMPS:FHP:1,2016-03-01T14:18:00Z,28.1530,-82.8010,-0.163,1111122 
COMPS,ioos:station:USF.COMPS:FHP:1,2016-03-01T14:24:00Z,28.1530,-82.8010,-0.166,1111122 
COMPS,ioos:station:USF.COMPS:FHP:1,2016-03-01T14:30:00Z,28.1530,-82.8010,-0.162,1111122 
COMPS,ioos:station:USF.COMPS:FHP:1,2016-03-01T14:36:00Z,28.1530,-82.8010,-0.16,1111122 
COMPS,ioos:station:USF.COMPS:FHP:1,2016-03-01T14:42:00Z,28.1530,-82.8010,-0.155,1111122 
COMPS,ioos:station:USF.COMPS:FHP:1,2016-03-01T14:48:00Z,28.1530,-82.8010,-0.152,1111122 
COMPS,ioos:station:USF.COMPS:FHP:1,2016-03-01T14:54:00Z,28.1530,-82.8010,-0.142,1111122 
COMPS,ioos:station:USF.COMPS:FHP:1,2016-03-01T15:00:00Z,28.1530,-82.8010,-0.142,1111122 
COMPS,ioos:station:USF.COMPS:FHP:1,2016-03-01T15:06:00Z,28.1530,-82.8010,-0.136,1111122 
COMPS,ioos:station:USF.COMPS:FHP:1,2016-03-01T15:12:00Z,28.1530,-82.8010,-0.13,1111122 
COMPS,ioos:station:USF.COMPS:FHP:1,2016-03-01T15:18:00Z,28.1530,-82.8010,-0.126,1111122 
COMPS,ioos:station:USF.COMPS:FHP:1,2016-03-01T15:24:00Z,28.1530,-82.8010,-0.118,1111122 
COMPS,ioos:station:USF.COMPS:FHP:1,2016-03-01T15:30:00Z,28.1530,-82.8010,-0.113,1111122 
COMPS,ioos:station:USF.COMPS:FHP:1,2016-03-01T15:36:00Z,28.1530,-82.8010,-0.112,1111122 
COMPS,ioos:station:USF.COMPS:FHP:1,2016-03-01T15:42:00Z,28.1530,-82.8010,-0.098,1111122 
COMPS,ioos:station:USF.COMPS:FHP:1,2016-03-01T15:48:00Z,28.1530,-82.8010,-0.093,1111122 
COMPS,ioos:station:USF.COMPS:FHP:1,2016-03-01T15:54:00Z,28.1530,-82.8010,-0.091,1111122 
COMPS,ioos:station:USF.COMPS:FHP:1,2016-03-01T16:00:00Z,28.1530,-82.8010,-0.078,1111122 
COMPS,ioos:station:USF.COMPS:FHP:1,2016-03-01T16:06:00Z,28.1530,-82.8010,-0.077,1111122 
COMPS,ioos:station:USF.COMPS:FHP:1,2016-03-01T16:12:00Z,28.1530,-82.8010,-0.057,1111122 
COMPS,ioos:station:USF.COMPS:FHP:1,2016-03-01T16:18:00Z,28.1530,-82.8010,-0.056,1111122 
COMPS,ioos:station:USF.COMPS:FHP:1,2016-03-01T16:24:00Z,28.1530,-82.8010,-0.047,1111122 
COMPS,ioos:station:USF.COMPS:FHP:1,2016-03-01T16:30:00Z,28.1530,-82.8010,-0.045,1111122 
COMPS,ioos:station:USF.COMPS:FHP:1,2016-03-01T16:36:00Z,28.1530,-82.8010,-0.05,1111122 
COMPS,ioos:station:USF.COMPS:FHP:1,2016-03-01T16:42:00Z,28.1530,-82.8010,-0.044,1111122 
COMPS,ioos:station:USF.COMPS:FHP:1,2016-03-01T16:48:00Z,28.1530,-82.8010,-0.03,1111122 
COMPS,ioos:station:USF.COMPS:FHP:1,2016-03-01T16:54:00Z,28.1530,-82.8010,-0.03,1111122 
COMPS,ioos:station:USF.COMPS:FHP:1,2016-03-01T17:00:00Z,28.1530,-82.8010,-0.007,1111122 
COMPS,ioos:station:USF.COMPS:FHP:1,2016-03-01T17:06:00Z,28.1530,-82.8010,-0.006,1111122 
COMPS,ioos:station:USF.COMPS:FHP:1,2016-03-01T17:12:00Z,28.1530,-82.8010,0.007,1111122 
COMPS,ioos:station:USF.COMPS:FHP:1,2016-03-01T17:18:00Z,28.1530,-82.8010,0.016,1111122 
COMPS,ioos:station:USF.COMPS:FHP:1,2016-03-01T17:24:00Z,28.1530,-82.8010,0.016,1111122 
COMPS,ioos:station:USF.COMPS:FHP:1,2016-03-01T17:30:00Z,28.1530,-82.8010,0.024,1111122 
COMPS,ioos:station:USF.COMPS:FHP:1,2016-03-01T17:36:00Z,28.1530,-82.8010,0.03,1111122 
COMPS,ioos:station:USF.COMPS:FHP:1,2016-03-01T17:42:00Z,28.1530,-82.8010,0.049,1111122 
COMPS,ioos:station:USF.COMPS:FHP:1,2016-03-01T17:48:00Z,28.1530,-82.8010,0.055,1111122 
COMPS,ioos:station:USF.COMPS:FHP:1,2016-03-01T17:54:00Z,28.1530,-82.8010,0.07,1111122 
COMPS,ioos:station:USF.COMPS:FHP:1,2016-03-01T18:00:00Z,28.1530,-82.8010,0.075,1111122 
COMPS,ioos:station:USF.COMPS:FHP:1,2016-03-01T18:06:00Z,28.1530,-82.8010,0.081,1111122 
COMPS,ioos:station:USF.COMPS:FHP:1,2016-03-01T18:12:00Z,28.1530,-82.8010,0.092,1111122 
COMPS,ioos:station:USF.COMPS:FHP:1,2016-03-01T18:18:00Z,28.1530,-82.8010,0.104,1111122 
COMPS,ioos:station:USF.COMPS:FHP:1,2016-03-01T18:24:00Z,28.1530,-82.8010,0.108,1111122 
COMPS,ioos:station:USF.COMPS:FHP:1,2016-03-01T18:30:00Z,28.1530,-82.8010,0.125,1111122 
COMPS,ioos:station:USF.COMPS:FHP:1,2016-03-01T18:36:00Z,28.1530,-82.8010,0.136,1111122 
COMPS,ioos:station:USF.COMPS:FHP:1,2016-03-01T18:42:00Z,28.1530,-82.8010,0.156,1111122 
COMPS,ioos:station:USF.COMPS:FHP:1,2016-03-01T18:48:00Z,28.1530,-82.8010,0.168,1111122 
COMPS,ioos:station:USF.COMPS:FHP:1,2016-03-01T18:54:00Z,28.1530,-82.8010,0.18,1111122 
COMPS,ioos:station:USF.COMPS:FHP:1,2016-03-01T19:00:00Z,28.1530,-82.8010,0.192,1111122 
COMPS,ioos:station:USF.COMPS:FHP:1,2016-03-01T19:06:00Z,28.1530,-82.8010,0.199,1111122 
COMPS,ioos:station:USF.COMPS:FHP:1,2016-03-01T19:12:00Z,28.1530,-82.8010,0.214,1111122 
COMPS,ioos:station:USF.COMPS:FHP:1,2016-03-01T19:18:00Z,28.1530,-82.8010,0.224,1111122 
COMPS,ioos:station:USF.COMPS:FHP:1,2016-03-01T19:24:00Z,28.1530,-82.8010,0.231,1111122 
COMPS,ioos:station:USF.COMPS:FHP:1,2016-03-01T19:30:00Z,28.1530,-82.8010,0.248,1111122 
COMPS,ioos:station:USF.COMPS:FHP:1,2016-03-01T19:36:00Z,28.1530,-82.8010,0.255,1111122 
COMPS,ioos:station:USF.COMPS:FHP:1,2016-03-01T19:42:00Z,28.1530,-82.8010,0.263,1111122 
COMPS,ioos:station:USF.COMPS:FHP:1,2016-03-01T19:48:00Z,28.1530,-82.8010,0.269,1111122 
COMPS,ioos:station:USF.COMPS:FHP:1,2016-03-01T19:54:00Z,28.1530,-82.8010,0.273,1111122 
COMPS,ioos:station:USF.COMPS:FHP:1,2016-03-01T20:00:00Z,28.1530,-82.8010,0.289,1111122 
COMPS,ioos:station:USF.COMPS:FHP:1,2016-03-01T20:06:00Z,28.1530,-82.8010,0.291,1111122 
COMPS,ioos:station:USF.COMPS:FHP:1,2016-03-01T20:12:00Z,28.1530,-82.8010,0.296,1111122 
COMPS,ioos:station:USF.COMPS:FHP:1,2016-03-01T20:18:00Z,28.1530,-82.8010,0.29,1111122 
COMPS,ioos:station:USF.COMPS:FHP:1,2016-03-01T20:24:00Z,28.1530,-82.8010,0.291,1111122 
COMPS,ioos:station:USF.COMPS:FHP:1,2016-03-01T20:30:00Z,28.1530,-82.8010,0.289,1111122 
COMPS,ioos:station:USF.COMPS:FHP:1,2016-03-01T20:36:00Z,28.1530,-82.8010,0.29,1111122 
COMPS,ioos:station:USF.COMPS:FHP:1,2016-03-01T20:42:00Z,28.1530,-82.8010,0.287,1111122 
COMPS,ioos:station:USF.COMPS:FHP:1,2016-03-01T20:48:00Z,28.1530,-82.8010,0.305,1111122 
COMPS,ioos:station:USF.COMPS:FHP:1,2016-03-01T20:54:00Z,28.1530,-82.8010,0.296,1111122 
COMPS,ioos:station:USF.COMPS:FHP:1,2016-03-01T21:00:00Z,28.1530,-82.8010,0.304,1111122 
COMPS,ioos:station:USF.COMPS:FHP:1,2016-03-01T21:06:00Z,28.1530,-82.8010,0.305,1111122 
COMPS,ioos:station:USF.COMPS:FHP:1,2016-03-01T21:12:00Z,28.1530,-82.8010,0.305,1111122 
COMPS,ioos:station:USF.COMPS:FHP:1,2016-03-01T21:18:00Z,28.1530,-82.8010,0.316,1111122 
COMPS,ioos:station:USF.COMPS:FHP:1,2016-03-01T21:24:00Z,28.1530,-82.8010,0.322,1111122 
COMPS,ioos:station:USF.COMPS:FHP:1,2016-03-01T21:30:00Z,28.1530,-82.8010,0.334,1111122 
COMPS,ioos:station:USF.COMPS:FHP:1,2016-03-01T21:36:00Z,28.1530,-82.8010,0.323,1111122 
COMPS,ioos:station:USF.COMPS:FHP:1,2016-03-01T21:42:00Z,28.1530,-82.8010,0.326,1111122 
COMPS,ioos:station:USF.COMPS:FHP:1,2016-03-01T21:48:00Z,28.1530,-82.8010,0.31,1111122 
COMPS,ioos:station:USF.COMPS:FHP:1,2016-03-01T21:54:00Z,28.1530,-82.8010,0.311,1111122 
COMPS,ioos:station:USF.COMPS:FHP:1,2016-03-01T22:00:00Z,28.1530,-82.8010,0.3,1111122 
COMPS,ioos:station:USF.COMPS:FHP:1,2016-03-01T22:06:00Z,28.1530,-82.8010,0.302,1111122 
COMPS,ioos:station:USF.COMPS:FHP:1,2016-03-01T22:12:00Z,28.1530,-82.8010,0.296,1111122 
COMPS,ioos:station:USF.COMPS:FHP:1,2016-03-01T22:18:00Z,28.1530,-82.8010,0.286,1111122 
COMPS,ioos:station:USF.COMPS:FHP:1,2016-03-01T22:24:00Z,28.1530,-82.8010,0.288,1111122 
COMPS,ioos:station:USF.COMPS:FHP:1,2016-03-01T22:30:00Z,28.1530,-82.8010,0.286,1111122 
COMPS,ioos:station:USF.COMPS:FHP:1,2016-03-01T22:36:00Z,28.1530,-82.8010,0.282,1111122 
COMPS,ioos:station:USF.COMPS:FHP:1,2016-03-01T22:42:00Z,28.1530,-82.8010,0.287,1111122 
COMPS,ioos:station:USF.COMPS:FHP:1,2016-03-01T22:48:00Z,28.1530,-82.8010,0.279,1111122 
COMPS,ioos:station:USF.COMPS:FHP:1,2016-03-01T22:54:00Z,28.1530,-82.8010,0.276,1111122 
COMPS,ioos:station:USF.COMPS:FHP:1,2016-03-01T23:00:00Z,28.1530,-82.8010,0.262,1111122 
COMPS,ioos:station:USF.COMPS:FHP:1,2016-03-01T23:06:00Z,28.1530,-82.8010,0.257,1111122 
COMPS,ioos:station:USF.COMPS:FHP:1,2016-03-01T23:12:00Z,28.1530,-82.8010,0.243,1111122 
COMPS,ioos:station:USF.COMPS:FHP:1,2016-03-01T23:18:00Z,28.1530,-82.8010,0.228,1111122 
COMPS,ioos:station:USF.COMPS:FHP:1,2016-03-01T23:24:00Z,28.1530,-82.8010,0.211,1111122 
COMPS,ioos:station:USF.COMPS:FHP:1,2016-03-01T23:30:00Z,28.1530,-82.8010,0.207,1111122 
COMPS,ioos:station:USF.COMPS:FHP:1,2016-03-01T23:36:00Z,28.1530,-82.8010,0.183,1111122 
COMPS,ioos:station:USF.COMPS:FHP:1,2016-03-01T23:42:00Z,28.1530,-82.8010,0.172,1111122 
COMPS,ioos:station:USF.COMPS:FHP:1,2016-03-01T23:48:00Z,28.1530,-82.8010,0.153,1111122 
COMPS,ioos:station:USF.COMPS:FHP:1,2016-03-01T23:54:00Z,28.1530,-82.8010,0.136,1111122 
COMPS,ioos:station:USF.COMPS:FHP:1,2016-03-02T00:00:00Z,28.1530,-82.8010,0.133,1111122 
COMPS,ioos:station:USF.COMPS:FHP:1,2016-03-02T00:06:00Z,28.1530,-82.8010,0.111,1111122 
COMPS,ioos:station:USF.COMPS:FHP:1,2016-03-02T00:18:00Z,28.1530,-82.8010,0.112,1111122 
COMPS,ioos:station:USF.COMPS:FHP:1,2016-03-02T00:24:00Z,28.1530,-82.8010,0.109,1111122 
COMPS,ioos:station:USF.COMPS:FHP:1,2016-03-02T00:30:00Z,28.1530,-82.8010,0.104,1111122 
COMPS,ioos:station:USF.COMPS:FHP:1,2016-03-02T00:36:00Z,28.1530,-82.8010,0.074,1111122 
COMPS,ioos:station:USF.COMPS:FHP:1,2016-03-02T00:42:00Z,28.1530,-82.8010,0.062,1111122 
COMPS,ioos:station:USF.COMPS:FHP:1,2016-03-02T00:48:00Z,28.1530,-82.8010,0.047,1111122 
COMPS,ioos:station:USF.COMPS:FHP:1,2016-03-02T00:54:00Z,28.1530,-82.8010,0.012,1111122 
COMPS,ioos:station:USF.COMPS:FHP:1,2016-03-02T01:00:00Z,28.1530,-82.8010,0.007,1111122 
COMPS,ioos:station:USF.COMPS:FHP:1,2016-03-02T01:06:00Z,28.1530,-82.8010,-0.01,1111122 
COMPS,ioos:station:USF.COMPS:FHP:1,2016-03-02T01:12:00Z,28.1530,-82.8010,-0.02,1111122 
COMPS,ioos:station:USF.COMPS:FHP:1,2016-03-02T01:18:00Z,28.1530,-82.8010,-0.04,1111122 
COMPS,ioos:station:USF.COMPS:FHP:1,2016-03-02T01:24:00Z,28.1530,-82.8010,-0.058,1111122 
COMPS,ioos:station:USF.COMPS:FHP:1,2016-03-02T01:30:00Z,28.1530,-82.8010,-0.076,1111122 
COMPS,ioos:station:USF.COMPS:FHP:1,2016-03-02T01:36:00Z,28.1530,-82.8010,-0.086,1111122 
COMPS,ioos:station:USF.COMPS:FHP:1,2016-03-02T01:42:00Z,28.1530,-82.8010,-0.086,1111122 
COMPS,ioos:station:USF.COMPS:FHP:1,2016-03-02T01:48:00Z,28.1530,-82.8010,-0.103,1111122 
COMPS,ioos:station:USF.COMPS:FHP:1,2016-03-02T01:54:00Z,28.1530,-82.8010,-0.11,1111122 
COMPS,ioos:station:USF.COMPS:FHP:1,2016-03-02T02:00:00Z,28.1530,-82.8010,-0.122,1111122 
COMPS,ioos:station:USF.COMPS:FHP:1,2016-03-02T02:06:00Z,28.1530,-82.8010,-0.144,1111122 
COMPS,ioos:station:USF.COMPS:FHP:1,2016-03-02T02:12:00Z,28.1530,-82.8010,-0.15,1111122 
COMPS,ioos:station:USF.COMPS:FHP:1,2016-03-02T02:18:00Z,28.1530,-82.8010,-0.162,1111122 
COMPS,ioos:station:USF.COMPS:FHP:1,2016-03-02T02:24:00Z,28.1530,-82.8010,-0.177,1111122 
COMPS,ioos:station:USF.COMPS:FHP:1,2016-03-02T02:30:00Z,28.1530,-82.8010,-0.175,1111122 
COMPS,ioos:station:USF.COMPS:FHP:1,2016-03-02T02:36:00Z,28.1530,-82.8010,-0.193,1111122 
COMPS,ioos:station:USF.COMPS:FHP:1,2016-03-02T02:42:00Z,28.1530,-82.8010,-0.208,1111122 
COMPS,ioos:station:USF.COMPS:FHP:1,2016-03-02T02:48:00Z,28.1530,-82.8010,-0.218,1111122 
COMPS,ioos:station:USF.COMPS:FHP:1,2016-03-02T02:54:00Z,28.1530,-82.8010,-0.225,1111122 
COMPS,ioos:station:USF.COMPS:FHP:1,2016-03-02T03:00:00Z,28.1530,-82.8010,-0.232,1111122 
COMPS,ioos:station:USF.COMPS:FHP:1,2016-03-02T03:06:00Z,28.1530,-82.8010,-0.239,1111122 
COMPS,ioos:station:USF.COMPS:FHP:1,2016-03-02T03:12:00Z,28.1530,-82.8010,-0.251,1111122 
COMPS,ioos:station:USF.COMPS:FHP:1,2016-03-02T03:18:00Z,28.1530,-82.8010,-0.262,1111122 
COMPS,ioos:station:USF.COMPS:FHP:1,2016-03-02T03:24:00Z,28.1530,-82.8010,-0.274,1111122 
COMPS,ioos:station:USF.COMPS:FHP:1,2016-03-02T03:30:00Z,28.1530,-82.8010,-0.278,1111122 
COMPS,ioos:station:USF.COMPS:FHP:1,2016-03-02T03:36:00Z,28.1530,-82.8010,-0.282,1111122 
COMPS,ioos:station:USF.COMPS:FHP:1,2016-03-02T03:42:00Z,28.1530,-82.8010,-0.283,1111122 
COMPS,ioos:station:USF.COMPS:FHP:1,2016-03-02T03:48:00Z,28.1530,-82.8010,-0.277,1111122 
COMPS,ioos:station:USF.COMPS:FHP:1,2016-03-02T03:54:00Z,28.1530,-82.8010,-0.279,1111122 
COMPS,ioos:station:USF.COMPS:FHP:1,2016-03-02T04:00:00Z,28.1530,-82.8010,-0.28,1111122 
COMPS,ioos:station:USF.COMPS:FHP:1,2016-03-02T04:06:00Z,28.1530,-82.8010,-0.271,1111122 
COMPS,ioos:station:USF.COMPS:FHP:1,2016-03-02T04:12:00Z,28.1530,-82.8010,-0.275,1111122 
COMPS,ioos:station:USF.COMPS:FHP:1,2016-03-02T04:24:00Z,28.1530,-82.8010,-0.291,1111122 
COMPS,ioos:station:USF.COMPS:FHP:1,2016-03-02T04:30:00Z,28.1530,-82.8010,-0.284,1111122 
COMPS,ioos:station:USF.COMPS:FHP:1,2016-03-02T04:36:00Z,28.1530,-82.8010,-0.286,1111122 
COMPS,ioos:station:USF.COMPS:FHP:1,2016-03-02T04:42:00Z,28.1530,-82.8010,-0.285,1111122 
COMPS,ioos:station:USF.COMPS:FHP:1,2016-03-02T04:48:00Z,28.1530,-82.8010,-0.284,1111122 
COMPS,ioos:station:USF.COMPS:FHP:1,2016-03-02T04:54:00Z,28.1530,-82.8010,-0.282,1111122 
COMPS,ioos:station:USF.COMPS:FHP:1,2016-03-02T05:00:00Z,28.1530,-82.8010,-0.277,1111122 
COMPS,ioos:station:USF.COMPS:FHP:1,2016-03-02T05:06:00Z,28.1530,-82.8010,-0.278,1111122 
COMPS,ioos:station:USF.COMPS:FHP:1,2016-03-02T05:18:00Z,28.1530,-82.8010,-0.288,1111122 
COMPS,ioos:station:USF.COMPS:FHP:1,2016-03-02T05:24:00Z,28.1530,-82.8010,-0.298,1111122 
COMPS,ioos:station:USF.COMPS:FHP:1,2016-03-02T05:36:00Z,28.1530,-82.8010,-0.298,1111122 
COMPS,ioos:station:USF.COMPS:FHP:1,2016-03-02T05:42:00Z,28.1530,-82.8010,-0.282,1111122 
COMPS,ioos:station:USF.COMPS:FHP:1,2016-03-02T05:48:00Z,28.1530,-82.8010,-0.272,1111122 
COMPS,ioos:station:USF.COMPS:FHP:1,2016-03-02T05:54:00Z,28.1530,-82.8010,-0.265,1111122 
COMPS,ioos:station:USF.COMPS:FHP:1,2016-03-02T06:00:00Z,28.1530,-82.8010,-0.251,1111122 
COMPS,ioos:station:USF.COMPS:FHP:1,2016-03-02T06:12:00Z,28.1530,-82.8010,-0.241,1111122 
COMPS,ioos:station:USF.COMPS:FHP:1,2016-03-02T06:18:00Z,28.1530,-82.8010,-0.224,1111122 
COMPS,ioos:station:USF.COMPS:FHP:1,2016-03-02T06:36:00Z,28.1530,-82.8010,-0.207,1111122 